Location: Mat�lon
(46.2791°N, 7.1028°E)
Time: 16:54:43
(UTC+00:00)

Okean-O - Pass Details

Date: 18 September 2020
Orbit: 638 x 641 km, 98.2° (Epoch: 29 October)

Event Time Altitude Azimuth Distance (km) Brightness Sun altitude
Rises 18:05:37 0° 172° (S) 2,932 5.9 -5.8°
Reaches altitude 10° 18:07:49 10° 175° (S) 2,028 5.1 -6.2°
Maximum altitude 18:12:13 65° 258° (WSW) 706 3.2 -7.0°
Drops below altitude 10° 18:16:39 10° 341° (NNW) 2,045 5.6 -7.7°
Sets 18:18:53 0° 344° (NNW) 2,959 6.4 -8.1°
